[[{"header":{"parameterUnit":"m.s-1","parameterCategory":1,"la1":30.2991,"la2":30.254,"lo1":-89.0895,"lo2":-89.0444,"dy":0.0017,"dx":0.0017,"nx":28,"ny":28,"refTime":"2025-01-06T03:00:00:Z","depth":0,"parameterNumber":2,"parameterNumberName":"U-component_of_WINDS"},"data":[0,0,0,0,0,0,0,0,0,0,0,0,0,0,0,0,0,0,0,0,0,0,0,0,0,0,0,0,0,0,0,0,0,0,0,0,0,0,0,0,0,0,0,0,0,0,0,0,0,0,0,0,0,0,0,0,0,0,3.3243,3.3244,0,3.3278,3.3278,3.3279,3.323,3.3228,3.3227,3.3225,3.3259,3.3261,3.3264,0,0,0,0,0,0,0,0,0,0,0,0,0,3.3135,3.3138,3.3243,3.3244,3.3244,3.3278,3.3278,3.3279,3.323,3.3228,3.3226,3.3224,3.3258,3.3261,3.3264,0,0,0,0,0,0,0,0,0,0,0,0,0,3.3177,3.3138,3.3243,3.3224,3.3223,3.3278,3.3278,3.3279,3.3231,3.3228,3.3226,3.3223,3.3257,3.3261,3.3264,3.3339,0,0,3.3276,3.3278,0,0,0,0,0,0,0,0,3.3175,3.3181,3.3227,3.3226,3.3224,3.3247,3.3253,3.3299,3.3231,3.3228,3.3225,3.3222,3.3257,3.3261,3.3273,3.3341,3.3342,3.3276,3.3279,3.328,3.3281,0,0,0,0,0,0,0,3.3172,3.318,3.3257,3.3227,3.3226,3.3214,3.3217,3.3261,3.3256,3.3228,3.3224,3.3229,3.3256,3.3269,3.3273,3.3343,3.3276,3.3279,3.3282,3.3283,3.3476,3.3479,0,0,0,0,0,0,3.3172,3.3177,3.3256,3.3258,3.3193,3.3218,3.3221,3.3242,3.3256,3.3255,3.3231,3.3227,3.3264,3.3269,3.3274,3.3363,3.328,3.3284,3.3286,3.3473,3.3477,3.348,0,0,0,0,0,0,3.317,3.3179,3.3254,3.3217,3.3226,3.3222,3.3246,3.3244,3.3258,3.3258,3.3257,3.3246,3.3262,3.3269,3.3324,3.3364,3.3285,3.3289,3.347,3.3474,3.3478,3.3542,0,0,0,0,0,0,3.3167,3.3179,3.3207,3.3218,3.3228,3.3304,3.3249,3.3247,3.3264,3.3259,3.3272,3.3271,3.3261,3.3319,3.3328,3.3368,3.3292,3.3466,3.3472,3.3477,3.3537,3.3548,3.3558,0,0,0,0,0,3.3163,3.3223,3.3209,3.3218,3.3263,3.3306,3.3312,3.3299,3.3268,3.3296,3.3297,3.3271,3.3358,3.3325,3.3334,3.3376,3.3464,3.347,3.3477,3.3532,3.3546,3.3558,0,0,0,0,0,0,3.3216,3.3224,3.3208,3.3273,3.329,3.3298,3.3333,3.3314,3.3339,3.3332,3.3314,3.3318,3.3377,3.3382,3.3345,3.345,3.3406,3.3415,3.3445,3.3458,3.3469,3.3466,3.3295,0,0,0,0,0,3.3235,3.327,3.3275,3.3332,3.3341,3.3336,3.3355,3.3343,3.3359,3.3365,3.337,3.3386,3.3417,3.3438,3.3467,3.3538,3.354,3.3571,3.3582,3.3591,3.3599,3.3637,3.3652,3.3501,3.3501,3.3501,0,0,3.3275,3.3284,3.3307,3.3343,3.3354,3.3391,3.3342,3.3382,3.3409,3.3371,3.3424,3.3428,3.3445,3.3509,3.3537,3.3515,3.3641,3.3599,3.3606,3.3609,3.3646,3.366,3.3672,3.3505,3.3505,3.3504,0,0,3.3367,3.3377,3.3426,3.3439,3.3457,3.3454,3.3466,3.3478,3.3479,3.3532,3.3505,3.3537,3.359,3.3604,3.3618,3.3717,3.3694,3.3727,3.3783,3.3822,3.3833,3.3844,3.388,3.3893,3.3735,3.3735,3.3735,0,3.3414,3.3468,3.3454,3.3496,3.3513,3.3482,3.3532,3.3545,3.3572,3.3584,3.3559,3.3627,3.3636,3.3703,3.3728,3.374,3.3754,3.3725,3.3833,3.3843,3.3853,3.3887,3.39,3.3739,3.3738,3.3738,3.3738,0,3.3525,3.3563,3.3601,3.3628,3.365,3.3696,3.3689,3.3713,3.37,3.37,3.3755,3.3765,3.3796,3.3811,3.3798,3.3877,3.3862,3.3836,3.3791,3.3871,3.3903,3.3916,3.3744,3.3743,3.3742,3.3741,0,0,3.3649,3.367,3.3684,3.3696,3.3715,3.3744,3.3789,3.382,3.3841,3.3861,3.3899,3.3946,3.3922,3.3938,3.3927,3.3961,3.404,3.393,3.393,3.395,3.4127,3.4147,3.4162,3.4025,3.4028,3.403,3.4126,0,3.374,3.3819,3.3809,3.3884,3.3919,3.3891,3.3931,3.3947,3.3948,3.3979,3.398,3.4014,3.3979,3.3989,3.4021,3.4023,3.4075,3.4016,3.406,3.4062,3.4056,3.4179,3.4199,3.4289,3.4138,3.414,3.4142,0,3.3857,3.3882,3.3961,3.3976,3.3991,3.4026,3.4055,3.4084,3.4102,3.4101,3.412,3.4104,3.415,3.4105,3.4168,3.4129,3.4146,3.415,3.4154,3.4156,3.4106,3.4185,3.4318,3.4331,3.4161,3.4159,3.4158,0,3.3939,3.3993,3.4048,3.406,3.4078,3.4104,3.4113,3.4129,3.4149,3.4174,3.4186,3.4216,3.4233,3.4256,3.4249,3.4217,3.4314,3.4268,3.4314,3.4314,3.4335,3.4333,3.4472,3.4347,3.4347,3.4347,3.4347,0,3.4042,3.4091,3.4085,3.4119,3.4174,3.4162,3.4217,3.4223,3.4237,3.4272,3.425,3.4282,3.4271,3.4303,3.4298,3.4351,3.4359,3.4359,3.4357,3.4361,3.4361,3.4371,3.4365,3.435,3.435,3.4349,3.4348,0,3.4143,3.414,3.4198,3.4212,3.4217,3.4257,3.4269,3.43,3.4301,3.4345,3.4354,3.4355,3.4392,3.4388,3.4428,3.4425,3.4492,3.4482,3.4486,3.4483,3.4529,3.4525,3.4679,3.4699,3.4562,3.4563,3.4564,0,3.4208,3.4246,3.4264,3.4286,3.4297,3.4332,3.4353,3.4344,3.4366,3.4391,3.442,3.4455,3.4483,3.4543,3.4547,3.4579,3.457,3.4622,3.4574,3.4578,3.4571,3.4568,3.4572,3.4631,3.4632,3.4634,3.4635,0,3.4324,3.4322,3.4353,3.4384,3.441,3.4433,3.4455,3.4474,3.4467,3.4493,3.4532,3.4553,3.4596,3.4632,3.4662,3.4671,3.4652,3.465,3.4662,3.4666,3.4667,3.4667,3.4511,3.4646,3.4645,3.4644,3.4644,3.4643,3.4409,3.4442,3.446,3.4496,3.4512,3.4533,3.4564,3.4569,3.4601,3.4635,3.4628,3.4671,3.469,3.4729,3.4742,3.4775,3.4756,3.4774,3.4778,3.4783,3.4788,3.4662,3.4781,3.478,3.478,3.478,3.478,0,3.4524,3.4535,3.4568,3.46,3.4628,3.4609,3.4633,3.4657,3.4696,3.4715,3.4744,3.4788,3.4823,3.4831,3.4864,3.489,3.4882,3.4899,3.4896,3.4899,3.4803,3.4789,3.4905,3.4905,3.4905,3.4905,3.4905,3.4905,3.4587,3.4642,3.4642,3.4705,3.4716,3.4758,3.4773,3.4793,3.4809,3.486,3.4889,3.4894,3.4909,3.4944,3.4975,3.4977,3.499,3.501,3.5008,3.4918,3.4906,3.4894,3.488,3.5013,3.5013,3.5101,3.5102,3.5103]},{"header":{"parameterUnit":"m.s-1","parameterCategory":1,"la1":30.2991,"la2":30.254,"lo1":-89.0895,"lo2":-89.0444,"dy":0.0017,"dx":0.0017,"nx":28,"ny":28,"refTime":"2025-01-06T03:00:00:Z","depth":0,"parameterNumber":3,"parameterNumberName":"V-component_of_WINDS"},"data":[0,0,0,0,0,0,0,0,0,0,0,0,0,0,0,0,0,0,0,0,0,0,0,0,0,0,0,0,0,0,0,0,0,0,0,0,0,0,0,0,0,0,0,0,0,0,0,0,0,0,0,0,0,0,0,0,0,0,-7.5088,-7.509,0,-7.5317,-7.5319,-7.5322,-7.5288,-7.5284,-7.528,-7.5276,-7.5508,-7.5517,-7.5527,0,0,0,0,0,0,0,0,0,0,0,0,0,-7.4618,-7.4626,-7.5087,-7.509,-7.5093,-7.5316,-7.5319,-7.5322,-7.5288,-7.5283,-7.5279,-7.5274,-7.5504,-7.5516,-7.5528,0,0,0,0,0,0,0,0,0,0,0,0,0,-7.4832,-7.4629,-7.5087,-7.5103,-7.5107,-7.5316,-7.5319,-7.5323,-7.5289,-7.5283,-7.5278,-7.5272,-7.55,-7.5515,-7.5529,-7.5735,0,0,-7.5574,-7.558,0,0,0,0,0,0,0,0,-7.4819,-7.4849,-7.5098,-7.5102,-7.5107,-7.5268,-7.5238,-7.5461,-7.5291,-7.522,-7.5276,-7.5269,-7.5432,-7.5452,-7.5508,-7.5746,-7.5756,-7.5575,-7.5584,-7.559,-7.5594,0,0,0,0,0,0,0,-7.4805,-7.4839,-7.5178,-7.5101,-7.5107,-7.5098,-7.5122,-7.5281,-7.5356,-7.5226,-7.5224,-7.5251,-7.5433,-7.5494,-7.5513,-7.576,-7.5575,-7.5588,-7.5597,-7.5603,-7.6179,-7.6185,0,0,0,0,0,0,-7.4786,-7.4827,-7.5171,-7.5185,-7.4946,-7.5111,-7.5138,-7.5222,-7.5354,-7.5368,-7.5256,-7.5249,-7.5471,-7.5496,-7.5521,-7.5771,-7.559,-7.5604,-7.5612,-7.6172,-7.618,-7.6187,0,0,0,0,0,0,-7.4776,-7.4817,-7.5161,-7.5005,-7.5049,-7.5125,-7.522,-7.5229,-7.5289,-7.5377,-7.539,-7.5304,-7.5468,-7.55,-7.5683,-7.5779,-7.5611,-7.5624,-7.6165,-7.6175,-7.6184,-7.6273,0,0,0,0,0,0,-7.4763,-7.4814,-7.4893,-7.5008,-7.5057,-7.5321,-7.5226,-7.5238,-7.5315,-7.5308,-7.5425,-7.5439,-7.5466,-7.5661,-7.5697,-7.5796,-7.5635,-7.6156,-7.6169,-7.6181,-7.6262,-7.6285,-7.6305,0,0,0,0,0,-7.4746,-7.4909,-7.4898,-7.4939,-7.5159,-7.5326,-7.5354,-7.5383,-7.5323,-7.5404,-7.546,-7.5435,-7.5762,-7.568,-7.572,-7.5825,-7.615,-7.6165,-7.618,-7.6253,-7.628,-7.6304,0,0,0,0,0,0,-7.4803,-7.4924,-7.4913,-7.5118,-7.5212,-7.532,-7.5423,-7.5411,-7.5524,-7.5512,-7.5542,-7.5568,-7.5753,-7.5807,-7.5713,-7.6031,-7.5948,-7.5971,-7.5989,-7.6017,-7.6037,-7.6021,-7.5647,0,0,0,0,0,-7.484,-7.4967,-7.5065,-7.5236,-7.5284,-7.5346,-7.5419,-7.5433,-7.5532,-7.5571,-7.564,-7.5736,-7.586,-7.5941,-7.606,-7.627,-7.6294,-7.6361,-7.6382,-7.6399,-7.6419,-7.6534,-7.6565,-7.6235,-7.6235,-7.6235,0,0,-7.4916,-7.4998,-7.5076,-7.525,-7.5325,-7.5454,-7.5379,-7.552,-7.5616,-7.5592,-7.5769,-7.5823,-7.5931,-7.6128,-7.6218,-7.6179,-7.6516,-7.6418,-7.6431,-7.6442,-7.6552,-7.6583,-7.6611,-7.6245,-7.6244,-7.6242,0,0,-7.5123,-7.5197,-7.5348,-7.5425,-7.5539,-7.5579,-7.5615,-7.5725,-7.5761,-7.5939,-7.5924,-7.6038,-7.6251,-7.6329,-7.6397,-7.6633,-7.6614,-7.6671,-7.6781,-7.6892,-7.6918,-7.6942,-7.7026,-7.7055,-7.669,-7.669,-7.6691,0,-7.5203,-7.5399,-7.5427,-7.557,-7.5647,-7.5632,-7.5784,-7.5857,-7.6004,-7.6057,-7.6011,-7.6278,-7.635,-7.6565,-7.6623,-7.6678,-7.672,-7.6657,-7.6913,-7.6936,-7.6958,-7.7039,-7.707,-7.6696,-7.6696,-7.6695,-7.6695,0,-7.5493,-7.5629,-7.5737,-7.5881,-7.5969,-7.6116,-7.6165,-7.6252,-7.6258,-7.6302,-7.6483,-7.6569,-7.6705,-7.6757,-7.6764,-7.6973,-7.6945,-7.6906,-7.6822,-7.6995,-7.7071,-7.7102,-7.6705,-7.6703,-7.6701,-7.67,0,0,-7.5742,-7.5899,-7.5938,-7.6003,-7.6128,-7.6233,-7.6379,-7.6514,-7.6587,-7.6689,-7.6811,-7.6992,-7.6957,-7.7034,-7.7049,-7.7147,-7.7328,-7.7095,-7.7098,-7.7135,-7.7563,-7.7592,-7.7628,-7.7316,-7.7322,-7.7327,-7.7554,0,-7.596,-7.6219,-7.6248,-7.6479,-7.6605,-7.6592,-7.6719,-7.6809,-7.6854,-7.6967,-7.7016,-7.7144,-7.7087,-7.7134,-7.723,-7.7285,-7.7414,-7.7269,-7.743,-7.7435,-7.7403,-7.7667,-7.7699,-7.7909,-7.7584,-7.7589,-7.7593,0,-7.6249,-7.636,-7.6604,-7.6711,-7.6765,-7.6879,-7.7005,-7.7113,-7.7214,-7.724,-7.7326,-7.7329,-7.7478,-7.7389,-7.7595,-7.7496,-7.7563,-7.7601,-7.7609,-7.7625,-7.7525,-7.769,-7.7976,-7.8008,-7.764,-7.7636,-7.7633,0,-7.6406,-7.6617,-7.679,-7.6845,-7.6975,-7.7056,-7.7113,-7.7209,-7.7288,-7.7397,-7.7448,-7.7573,-7.7642,-7.7738,-7.7774,-7.7705,-7.7978,-7.7892,-7.8003,-7.8002,-7.8061,-7.8057,-7.8362,-7.8104,-7.8104,-7.8103,-7.8103,0,-7.6647,-7.6796,-7.6862,-7.6968,-7.7135,-7.7167,-7.7331,-7.7384,-7.747,-7.7586,-7.7582,-7.7691,-7.7732,-7.7847,-7.7875,-7.8042,-7.8072,-7.8097,-7.8103,-7.8098,-7.8095,-7.8142,-7.8128,-7.8112,-7.811,-7.8108,-7.8107,0,-7.6851,-7.6901,-7.7088,-7.7196,-7.7227,-7.7345,-7.7437,-7.7539,-7.7582,-7.7729,-7.7765,-7.7834,-7.7969,-7.8015,-7.8178,-7.8197,-7.8391,-7.8384,-7.8357,-7.8358,-7.8467,-7.8456,-7.8813,-7.8861,-7.8572,-7.8575,-7.8577,0,-7.7001,-7.7116,-7.7236,-7.7314,-7.7375,-7.7501,-7.7581,-7.7617,-7.7701,-7.7825,-7.7912,-7.8047,-7.8156,-7.8373,-7.8436,-7.8561,-7.8557,-7.8674,-7.8576,-7.8567,-7.8559,-7.8552,-7.8563,-7.8692,-7.8695,-7.8697,-7.8699,0,-7.7263,-7.7282,-7.7399,-7.7525,-7.7622,-7.7723,-7.782,-7.7883,-7.7933,-7.8027,-7.8166,-7.8251,-7.8419,-7.8552,-7.868,-7.8737,-7.8727,-7.873,-7.8762,-7.8758,-7.8737,-7.875,-7.8407,-7.8721,-7.8719,-7.8717,-7.8716,-7.8715,-7.7445,-7.7546,-7.7647,-7.7777,-7.7854,-7.7945,-7.8047,-7.8104,-7.822,-7.836,-7.8373,-7.8523,-7.8621,-7.8791,-7.8856,-7.8973,-7.894,-7.8986,-7.8998,-7.9009,-7.9018,-7.8719,-7.8996,-7.8995,-7.8995,-7.8994,-7.8994,0,-7.7706,-7.777,-7.789,-7.8027,-7.8129,-7.8111,-7.8218,-7.8304,-7.8437,-7.8529,-7.8638,-7.8797,-7.8926,-7.9,-7.9129,-7.9208,-7.9207,-7.9241,-7.9235,-7.9249,-7.904,-7.8999,-7.924,-7.924,-7.924,-7.924,-7.924,-7.924,-7.7854,-7.8025,-7.8056,-7.8265,-7.8327,-7.8475,-7.8537,-7.8621,-7.8695,-7.8874,-7.8982,-7.9029,-7.9115,-7.925,-7.9367,-7.9385,-7.9433,-7.9471,-7.9486,-7.9289,-7.9264,-7.924,-7.9201,-7.9481,-7.9481,-7.9685,-7.9687,-7.9688]}]]